STARLINK-11605, 63134

Orbit data source: Space-Track

STARLINK-11605, 63134 is a payload satellite owned by SpaceX/Seattle (US) in LEO that was launched on Mon, 03 Mar 2025 UTC via an FALCON 9 launch vehicle from the Air Force Eastern Test Range (AFETR). Payload-class satellites include a variety of spacecraft equipped with specific instruments for various scientific and technological missions. These include communications satellites like Starlink; space stations such as the ISS; scientific satellites like the Hubble; Earth observation satellites from companies like Planet Labs, Umbra, and HawkEye 360; GPS; miniature CubeSats for education and research; and military/defense satellites.

Loading next visibility...
Identifier
63134, 2025-043C
Orbit
LEO
Last TLE update
1 day ago
Origin
Manufacturer
SpaceX/Seattle
Mission
Operational Commercial Communications
Bus & Motor
STARLINK V2M, Unknown motor
Mass
730 kg wet, ~700 kg dry
Launch date (UTC)
2025-03-03 (4 months ago)
Launch vehicle
FALCON 9
Launch site
Air Force Eastern Test Range (AFETR)
Object type
Payload
Rocket body
Debris
Shape & HBR
Box + 2 Pan, 29 m
Radar Cross Section
36.964 m², Large (>1 m²)

Expand to show TLE details & history

TLE from 1 day ago
0 STARLINK-11605
1 63134U 25043C   25169.01565102  .00230393  00000-0  17418-2 0  9997
2 63134  43.0006  46.2790 0003589 266.5683  93.4774 15.70944123 17728
Epoch: 2025-06-18T00:22Z
TLE epoch observation values (Epoch: 2025-06-18T00:22:32.248Z)
Latitude
-0.00002°
Longitude
134.14086°
Altitude
356.116 km
Speed
7.697 km/s
True Right ascension
03h 05m 06s
True Declination
0° 00' 00"
Sunlit
Object was in daylight at epoch
Visualization orbit readout
Latitude
40.76677°
Longitude
-166.77673°
Altitude
359.274 km
Speed
7.698 km/s
Apparent Right ascension
06h 32m 30s
Apparent Declination
1° 46' 10"
Sunlit
Object is in daylight
Visualization observer readout
Local Sidereal Time
18:02:19
Azimuth
348.741° N
Elevation
-47.745°
Doppler factor
1
Orbital elements
Apogee altitude
360.597 km
Perigee altitude
355.761 km
Semi-major axis
6,736.316 km
Eccentricity
0.00036
Inclination
43.0006°
RAAN
46.279°
Arg. of periapsis
266.5683°
True anomaly
Unknown
Mean anomaly
93.4774°
Eccentric anomaly
Unknown
Mean motion
3.92563 °/min
Orbital period
91.7 mins
BSTAR
0.0017418
Loading maneuver chart data...
Loading SW <> Apogee altitude chart data...
Loading historical data...
Loading historical data...
Loading historical data...
Loading historical data...
Loading historical data...
Loading historical data...
Loading historical data...

STARLINK-11605 Visibility forecast

Observer location: undefined°, undefined°

Span
Click to sort rows by Start time (UTC) header in descending order
Start Az.
Max El. time (UTC)
Max El. Az.
Max El.
End time (UTC)
End Az.
4 mins2025-06-19 19:20:42.717Z233.898° WSW2025-06-19 19:21:42.717Z209.796° SW38.87°2025-06-19 19:24:42.717Z76.243° E
4 mins2025-06-19 20:56:42.717Z290.436° WNW2025-06-19 20:58:42.717Z22.416° NNE33.621°2025-06-19 21:00:42.717Z67.428° ENE
4 mins2025-06-19 22:32:42.717Z296.293° NW2025-06-19 22:34:42.717Z27.224° NE40.311°2025-06-19 22:36:42.717Z90.002° ESE
|